STAR ONE D1 (41904 NORAD) Tracking and Keplerian Element Data

This shows tracking and keplerian element data for the satellite.

Feedback or suggestion? Click here.




ElementValue
Catalog41904
NameSTAR ONE D1
Epoch Orbit2114
Epoch Day269.58660612
Epoch Year2022
RAAN123.0788
Inclination0.0182
Eccentricity0.0002014
Argument of Perigee43.4392
Mean Anonmoly326.0285
Mean Motion1.00273476
Decay Rate-2.08E-06
L11 41904U 16082B 22269.58660612 -.00000208 00000+0 00000+0 0 9999
L22 41904 0.0182 123.0788 0002014 43.4392 326.0285 1.00273476 21146

Live tracking and technical data element details for STAR ONE D1 (NORAD 41904). STAR ONE D1 can be tracked NOW for your location showing map with azimuth and elevation plus other details from your city location.

Track the satellite on the map from your city or location and see movement details for azimuth, elevation, latitude, longitude, range, height, and movement on the map or in text.







IsCatalogInMostPopularTable: catalog: 41904, numindb: 641
Update: records affected: 1



GetName: 41904 STAR ONE D1

Hit Count: updated at: Wed, 05 Oct 2022 10:04:43 GMT